IRIDIUM 33 DEB, 34097

Orbit data source: Space-Track

IRIDIUM 33 DEB, 34097 is space debris in LEO originally from a launch on Sun, 14 Sep 1997 UTC launched from the Tyuratam Missile And Space Complex (TTMTR). The debris from Iridium 33, an American commercial communications satellite, has been tracked extensively since its accidental collision with the defunct Russian satellite Cosmos 2251 in 2009. This event, occurring at high speed in low Earth orbit (LEO), generated thousands of pieces of space debris, significantly increasing the risk of further collisions. The Iridium 33 debris cloud has impacted space traffic management and orbital debris mitigation strategies, making it a subject of ongoing study in space situational awareness.

Loading next visibility...
Identifier
34097, 1997-051DG
Orbit
LEO
Country
Flag of USUS
Related business
Manufacturer
Unknown
Mission
Spacecraft
Bus & Motor
Unknown
Mass
Unknown
Launch date (UTC)
1997-09-14 (29 years ago)
Launch vehicle
Unknown
Launch site
Tyuratam Missile And Space Complex (TTMTR)
Object type
Payload
Rocket body
Debris
Shape & HBR
Unknown shape, 0.1 m
Radar Cross Section
Medium (>0.1 m² and <1 m²)

Expand to show TLE details & history
Last TLE update: 8 hours ago

TLE from 8 hours ago
0 IRIDIUM 33 DEB
1 34097U 97051DG  26263.21502065  .00001805  00000-0  58729-3 0  9993
2 34097  86.1964 236.9181 0080673 159.1300 201.3223 14.36423812911583
Epoch: 2026-09-20T05:09Z
TLE epoch observation values (Epoch: 2026-09-20T05:09:37.784Z)
Latitude
0.00003°
Longitude
160.39826°
Altitude
827.184 km
Speed
7.411 km/s
True Right ascension
15h 47m 40s
True Declination
0° 00' 00"
Sunlit
Object was in daylight at epoch
Visualization orbit readout
Latitude
Unknown
Longitude
Unknown
Altitude
Unknown
Speed
Unknown
Apparent Right ascension
Unknown
Apparent Declination
Unknown
Sunlit
N/A
Visualization observer readout
Local Sidereal Time
05:55:35
Azimuth
Unknown
Elevation
Unknown
Doppler factor
Unknown
Orbital elements
Apogee altitude
824.948 km
Perigee altitude
709.66 km
Semi-major axis
7,145.441 km
Eccentricity
0.00807
Inclination
86.1964°
RAAN
236.9181°
Arg. of periapsis
159.13°
True anomaly
200.98929°
Mean anomaly
201.3223°
Eccentric anomaly
201.15548°
Mean motion
3.59335 °/min
Orbital period
100.19 mins
BSTAR
0.00058729

Documentation

Showing up to 5 results
|